This demonstration page uses our WeatherBlox Daily Observations layout. Learn more.

Left ArrowRight Arrow

Hourly Observations for June 14, 2018

Temp ( °F °C ) Dew Point ( °F °C ) Humidity (%) Winds ( mph kmh ) Pressure ( in mb ) Visibility ( mi km ) Precip ( " mm )
12:57 am 00:57 Clear 70 21.1 63 17.2 79 79 SE 15 24 29.84 1011 10 16 0.00 0.00
1:57 am 01:57 Clear 69 20.6 63 17.2 81 81 SSE 13 20 29.83 1010 10 16 0.00 0.00
2:57 am 02:57 Clear 69 20.6 66 18.9 90 90 SSE 9 15 29.82 1010 10 16 0.00 0.00
3:57 am 03:57 Clear 70 21.1 68 20 93 93 SSE 10 17 29.80 1009 10 16 0.00 0.00
4:57 am 04:57 Clear 70 21.1 68 20 93 93 S 10 17 29.79 1009 10 16 0.00 0.00
5:57 am 05:57 Clear 71 21.7 67 19.4 87 87 S 14 22 29.78 1008 10 16 0.00 0.00
6:57 am 06:57 Sunny 72 22.2 66 18.9 82 82 S 13 20 29.76 1008 10 16 0.00 0.00
7:57 am 07:57 Sunny 75 23.9 66 18.9 74 74 S 16 26 29.74 1007 9 14 0.00 0.00
8:57 am 08:57 Sunny 79 26.1 65 18.3 62 62 SSW 17 28 29.74 1007 9 14 0.00 0.00
9:57 am 09:57 Sunny 82 27.8 65 18.3 56 56 SSW 17 28 29.74 1007 9 14 0.00 0.00
10:57 am 10:57 Sunny 85 29.4 65 18.3 51 51 S 17 28 29.73 1007 7 11 0.00 0.00
11:33 am 11:33 Hazy 88 31 64 18 46 46 SSW 16 26 29.65 1004 6 10 0.00 0.00
11:57 am 11:57 Sunny 88 31.1 65 18.3 46 46 S 17 28 29.73 1007 10 16 0.00 0.00
12:57 pm 12:57 Sunny 92 33.3 66 18.9 43 43 SSE 20 31 29.71 1006 10 16 0.00 0.00
1:57 pm 13:57 Sunny 95 35 64 17.8 36 36 S 22 35 29.70 1006 10 16 0.00 0.00
2:57 pm 14:57 Hazy 96 35.6 63 17.2 34 34 S 25 41 29.68 1005 6 10 0.00 0.00
3:57 pm 15:57 Hazy 97 36.1 62 16.7 32 32 S 24 39 29.67 1005 6 10 0.00 0.00
4:57 pm 16:57 Sunny 98 36.7 60 15.6 28 28 S 24 39 29.64 1004 9 14 0.00 0.00
5:57 pm 17:57 Hazy 97 36.1 58 14.4 27 27 S 24 39 29.62 1003 6 10 0.00 0.00
6:57 pm 18:57 Sunny 96 35.6 59 15 29 29 S 22 35 29.61 1003 7 11 0.00 0.00
7:57 pm 19:57 Sunny 93 33.9 60 15.6 33 33 S 18 30 29.61 1003 10 16 0.00 0.00
8:57 pm 20:57 Sunny 88 31.1 59 15 38 38 SSE 15 24 29.61 1003 10 16 0.00 0.00
9:57 pm 21:57 Clear 86 30 60 15.6 42 42 SSE 16 26 29.62 1003 10 16 0.00 0.00
10:57 pm 22:57 Clear 84 28.9 60 15.6 44 44 S 17 28 29.65 1004 10 16 0.00 0.00
11:57 pm 23:57 Clear 84 28.9 60 15.6 44 44 S 21 33 29.65 1004 10 16 0.00 0.00

Powered by AerisWeather